This is the latest recevied weather packets stored in our database for station/object K5NAN. If no packets are shown the sender has not sent any weather packets the latest 10 day(s).
| Time | Temp. | Humidity | Pressure | Rain* | Wind** | Luminosity | Snow |
|---|---|---|---|---|---|---|---|
| 1777765784 | 24.44° C | 38% | 1017.5 hPa | 0 mm | - | 77 W/m² | - |
| 1777765480 | 24.44° C | 36% | 1017.1 hPa | 0 mm | - | 74 W/m² | - |
| 1777765178 | 23.89° C | 37% | 1017.3 hPa | 0 mm | - | 96 W/m² | - |
| 1777764873 | 23.89° C | 34% | 1017.3 hPa | 0 mm | - | 111 W/m² | - |
| 1777764570 | 23.89° C | 37% | 1017.4 hPa | 0 mm | - | 126 W/m² | - |
| 1777764267 | 23.89° C | 38% | 1017.4 hPa | 0 mm | - | 140 W/m² | - |
| 1777763964 | 23.89° C | 37% | 1017.6 hPa | 0 mm | - | 150 W/m² | - |
| 1777763661 | 23.89° C | 37% | 1017.4 hPa | 0 mm | - | 193 W/m² | - |
| 1777763359 | 23.33° C | 35% | 1017.5 hPa | 0 mm | - | 207 W/m² | - |
| 1777763057 | 23.89° C | 36% | 1017.5 hPa | 0 mm | - | 228 W/m² | - |
| 1777762755 | 23.89° C | 37% | 1017.4 hPa | 0 mm | - | 147 W/m² | - |
| 1777762450 | 23.89° C | 32% | 1017.6 hPa | 0 mm | - | 263 W/m² | - |
| 1777762148 | 23.89° C | 35% | 1017.5 hPa | 0 mm | - | 275 W/m² | - |
| 1777761843 | 23.89° C | 36% | 1017.4 hPa | 0 mm | - | 296 W/m² | - |
| 1777761541 | 23.89° C | 33% | 1017.5 hPa | 0 mm | - | 117 W/m² | - |
| 1777761238 | 23.89° C | 36% | 1017.7 hPa | 0 mm | - | 344 W/m² | - |
| 1777760936 | 23.89° C | 35% | 1017.7 hPa | 0 mm | - | 365 W/m² | - |
| 1777760634 | 23.89° C | 37% | 1017.7 hPa | 0 mm | - | 381 W/m² | - |
| 1777760329 | 23.89° C | 36% | 1017.6 hPa | 0 mm | - | 394 W/m² | - |
| 1777760026 | 23.89° C | 36% | 1017.7 hPa | 0 mm | - | 412 W/m² | - |
| 1777759723 | 23.33° C | 36% | 1017.7 hPa | 0 mm | - | 423 W/m² | - |
| 1777759419 | 23.33° C | 36% | 1017.8 hPa | 0 mm | - | 441 W/m² | - |
| 1777759115 | 23.89° C | 35% | 1017.8 hPa | 0 mm | - | 195 W/m² | - |
| 1777758813 | 23.89° C | 36% | 1017.7 hPa | 0 mm | - | 478 W/m² | - |
| 1777758510 | 23.89° C | 33% | 1017.8 hPa | 0 mm | - | 492 W/m² | - |
* Rain latest hour (hover to see other rain measurements)
** Current wind speed in m/s (hover to see current wind gust speed)